Location: Columbus
(29.5618°N, 96.6770°W)
Time: 19:04:50
(UTC-05:00)

Iridium 59 - Visible Passes

Search period start: 23 July 2014 00:00
Search period end: 02 August 2014 00:00
Orbit: 776 x 779 km, 86.4° (Epoch: 23 July)

Date Brightness Start Highest point End Pass type
(mag) Time Alt. Az. Time Alt. Az. Time Alt. Az.
23 Jul 5.1 06:08:29 10° S 06:13:41 86° W 06:18:55 10° N visible
24 Jul 6.1 05:35:18 10° SSE 05:40:15 47° E 05:45:13 10° NNE visible
25 Jul 7.3 05:02:52 10° SE 05:06:55 23° E 05:10:58 10° NNE visible
26 Jul 8.0 04:32:05 10° E 04:33:41 11° E 04:35:17 10° ENE visible
26 Jul 5.2 06:08:42 10° SSW 06:13:47 56° W 06:18:54 10° N visible
27 Jul 5.3 05:35:07 10° S 05:40:17 72° E 05:45:28 10° N visible
28 Jul 6.5 05:02:12 10° SSE 05:06:53 35° E 05:11:35 10° NNE visible
29 Jul 7.6 04:30:11 10° SE 04:33:36 18° E 04:37:00 10° NE visible
29 Jul 5.6 06:09:11 10° SSW 06:13:56 36° W 06:18:43 10° NNW visible
30 Jul 5.0 05:35:11 10° S 05:40:22 75° W 05:45:34 10° N visible
31 Jul 5.7 05:01:51 10° SSE 05:06:54 54° E 05:11:58 10° NNE visible
01 Aug 6.9 04:29:14 10° SE 04:33:33 27° E 04:37:52 10° NNE visible
01 Aug 6.2 06:09:58 10° SW 06:14:07 24° W 06:18:18 10° NNW visible
